SCO29JP EGKK-EGJJ

Flight info

Callsign SCO29JP
Flight time 0h 32m
Altitude 24000
Route NOVMA L620 SAM N63 LELNA
Aircraft A320/M-SDE3FGHIRWY/LB1

Departure

Time 2026-05-04 07:39
Airport London Gatwick Airport (EGKK)

Arrival

Time 2026-05-04 08:12
Airport Jersey Airport (EGJJ)
Time Latitude Longitude Altitude Speed Heading
2026-05-04 07:25 51.15267 -0.19489 215 ft 0 kts 78°
2026-05-04 07:29 51.15267 -0.19494 214 ft 3 kts 78°
2026-05-04 07:30 51.15262 -0.19536 215 ft 4 kts 82°
2026-05-04 07:30 51.15259 -0.19579 213 ft 4 kts 89°
2026-05-04 07:30 51.15261 -0.19619 212 ft 4 kts 115°
2026-05-04 07:30 51.15273 -0.19641 216 ft 0 kts 168°
2026-05-04 07:33 51.15243 -0.19630 212 ft 9 kts 167°
2026-05-04 07:33 51.15172 -0.19605 214 ft 11 kts 167°
2026-05-04 07:33 51.15100 -0.19580 204 ft 12 kts 168°
2026-05-04 07:34 51.15029 -0.19521 213 ft 11 kts 114°
2026-05-04 07:34 51.15037 -0.19410 214 ft 9 kts 78°
2026-05-04 07:34 51.15054 -0.19284 212 ft 15 kts 78°
2026-05-04 07:34 51.15079 -0.19104 211 ft 18 kts 78°
2026-05-04 07:35 51.15106 -0.18903 207 ft 20 kts 78°
2026-05-04 07:35 51.15137 -0.18681 203 ft 21 kts 77°
2026-05-04 07:35 51.15170 -0.18440 205 ft 23 kts 77°
2026-05-04 07:35 51.15199 -0.18184 214 ft 24 kts 77°
2026-05-04 07:36 51.15236 -0.17915 211 ft 26 kts 78°
2026-05-04 07:36 51.15276 -0.17631 210 ft 27 kts 77°
2026-05-04 07:38 51.15133 -0.16812 210 ft 15 kts 218°
2026-05-04 07:38 51.15099 -0.16967 212 ft 16 kts 258°
2026-05-04 07:38 51.15051 -0.17311 206 ft 64 kts 258°
2026-05-04 07:38 51.14906 -0.18371 214 ft 128 kts 257°
2026-05-04 07:39 51.14689 -0.20005 376 ft 161 kts 259°
2026-05-04 07:39 51.14456 -0.21739 1101 ft 160 kts 258°
2026-05-04 07:39 51.14211 -0.23502 1727 ft 170 kts 258°
2026-05-04 07:39 51.13942 -0.25437 2129 ft 193 kts 258°
2026-05-04 07:40 51.13633 -0.27655 2496 ft 218 kts 258°
2026-05-04 07:40 51.13282 -0.30173 2977 ft 243 kts 259°
2026-05-04 07:40 51.12906 -0.32878 3568 ft 261 kts 258°
2026-05-04 07:40 51.12497 -0.35820 4150 ft 283 kts 258°
2026-05-04 07:41 51.12073 -0.38857 4712 ft 273 kts 258°
2026-05-04 07:41 51.11664 -0.41778 5287 ft 270 kts 257°
2026-05-04 07:41 51.10996 -0.44572 5875 ft 272 kts 244°
2026-05-04 07:41 51.10151 -0.47280 6442 ft 273 kts 244°
2026-05-04 07:42 51.09303 -0.49992 7027 ft 275 kts 244°
2026-05-04 07:42 51.08451 -0.52715 7603 ft 277 kts 244°
2026-05-04 07:42 51.07592 -0.55465 8175 ft 279 kts 244°
2026-05-04 07:42 51.06723 -0.58253 8763 ft 282 kts 243°
2026-05-04 07:43 51.05851 -0.61052 9340 ft 284 kts 244°
2026-05-04 07:43 51.05187 -0.64008 9917 ft 287 kts 257°
2026-05-04 07:43 51.04770 -0.67122 10496 ft 288 kts 257°
2026-05-04 07:43 51.04353 -0.70246 11078 ft 289 kts 257°
2026-05-04 07:44 51.03932 -0.73380 11659 ft 291 kts 256°
2026-05-04 07:44 51.03506 -0.76532 12428 ft 296 kts 256°
2026-05-04 07:44 51.03061 -0.79814 12694 ft 319 kts 256°
2026-05-04 07:44 51.02575 -0.83369 13183 ft 331 kts 256°
2026-05-04 07:45 51.02083 -0.86980 13866 ft 336 kts 256°
2026-05-04 07:45 51.01589 -0.90626 14580 ft 339 kts 256°
2026-05-04 07:45 51.01099 -0.94256 15270 ft 342 kts 256°
2026-05-04 07:45 51.00595 -0.97957 15954 ft 345 kts 256°
2026-05-04 07:46 51.00085 -1.01689 16624 ft 348 kts 256°
2026-05-04 07:46 50.99565 -1.05476 17285 ft 351 kts 256°
2026-05-04 07:46 50.99044 -1.09268 17936 ft 354 kts 256°
2026-05-04 07:46 50.98512 -1.13115 18568 ft 357 kts 256°
2026-05-04 07:47 50.97976 -1.16962 19163 ft 359 kts 256°
2026-05-04 07:47 50.97432 -1.20836 19753 ft 362 kts 256°
2026-05-04 07:47 50.96880 -1.24767 20342 ft 365 kts 256°
2026-05-04 07:49 50.85200 -1.42755 22996 ft 360 kts 207°
2026-05-04 07:49 50.82985 -1.44523 22998 ft 355 kts 207°
2026-05-04 07:49 50.80793 -1.46274 22999 ft 353 kts 207°
2026-05-04 07:50 50.78600 -1.48020 22998 ft 352 kts 207°
2026-05-04 07:50 50.76428 -1.49744 22998 ft 352 kts 207°
2026-05-04 07:50 50.74216 -1.51495 22998 ft 352 kts 207°
2026-05-04 07:50 50.72048 -1.53215 22999 ft 352 kts 207°
2026-05-04 07:51 50.69838 -1.54968 22999 ft 352 kts 207°
2026-05-04 07:51 50.67675 -1.56679 22999 ft 352 kts 207°
2026-05-04 07:51 50.65449 -1.58434 22998 ft 352 kts 207°
2026-05-04 07:51 50.63289 -1.60134 22997 ft 352 kts 207°
2026-05-04 07:52 50.61071 -1.61880 22997 ft 352 kts 206°
2026-05-04 07:52 50.58911 -1.63578 23000 ft 351 kts 206°
2026-05-04 07:52 50.56729 -1.65293 23000 ft 351 kts 206°
2026-05-04 07:52 50.54512 -1.67032 23000 ft 351 kts 206°
2026-05-04 07:53 50.52357 -1.68725 23000 ft 351 kts 206°
2026-05-04 07:54 50.37055 -1.80692 23000 ft 351 kts 206°
2026-05-04 07:55 50.34876 -1.82392 23002 ft 350 kts 206°
2026-05-04 07:55 50.32694 -1.84091 23003 ft 350 kts 206°
2026-05-04 07:55 50.30512 -1.85784 23004 ft 350 kts 206°
2026-05-04 07:55 50.28347 -1.87460 23003 ft 350 kts 206°
2026-05-04 07:56 50.26170 -1.89145 23005 ft 350 kts 206°
2026-05-04 07:56 50.23982 -1.90840 23002 ft 350 kts 206°
2026-05-04 07:56 50.21806 -1.92524 23002 ft 350 kts 206°
2026-05-04 07:56 50.19618 -1.94220 23003 ft 350 kts 206°
2026-05-04 07:57 50.17443 -1.95900 23003 ft 350 kts 206°
2026-05-04 07:57 50.15253 -1.97589 23002 ft 350 kts 206°
2026-05-04 07:57 50.13075 -1.99266 23004 ft 350 kts 206°
2026-05-04 07:57 50.10896 -2.00941 23004 ft 350 kts 206°
2026-05-04 07:58 50.08707 -2.02627 23003 ft 350 kts 206°
2026-05-04 07:58 50.06529 -2.04302 23004 ft 350 kts 206°
2026-05-04 07:58 50.04353 -2.05975 23003 ft 350 kts 206°
2026-05-04 07:58 50.02171 -2.07650 23002 ft 350 kts 206°
2026-05-04 07:59 49.99982 -2.09328 23001 ft 349 kts 206°
2026-05-04 07:59 49.97765 -2.10772 22762 ft 342 kts 197°
2026-05-04 07:59 49.95473 -2.11615 22346 ft 338 kts 193°
2026-05-04 07:59 49.93185 -2.12390 21882 ft 337 kts 193°
2026-05-04 08:00 49.90895 -2.13168 21418 ft 335 kts 193°
2026-05-04 08:00 49.88630 -2.13942 20975 ft 333 kts 193°
2026-05-04 08:00 49.86377 -2.14712 20530 ft 332 kts 193°
2026-05-04 08:02 49.70914 -2.19985 17497 ft 320 kts 193°
2026-05-04 08:02 49.68754 -2.20823 17092 ft 318 kts 195°
2026-05-04 08:02 49.66633 -2.21752 16676 ft 317 kts 197°
2026-05-04 08:03 49.64528 -2.22721 16250 ft 316 kts 197°
2026-05-04 08:03 49.62430 -2.23698 15832 ft 315 kts 197°
2026-05-04 08:03 49.60327 -2.24667 15412 ft 314 kts 197°
2026-05-04 08:03 49.58233 -2.25617 15002 ft 313 kts 197°
2026-05-04 08:04 49.56156 -2.26551 14715 ft 308 kts 196°
2026-05-04 08:04 49.54132 -2.27456 14281 ft 298 kts 196°
2026-05-04 08:04 49.52155 -2.28331 13665 ft 295 kts 196°
2026-05-04 08:04 49.50196 -2.29200 13014 ft 292 kts 196°
2026-05-04 08:05 49.48242 -2.30066 12365 ft 290 kts 196°
2026-05-04 08:05 49.46313 -2.30921 11700 ft 288 kts 196°
2026-05-04 08:05 49.44408 -2.31762 11055 ft 286 kts 196°
2026-05-04 08:05 49.42500 -2.32604 10377 ft 285 kts 196°
2026-05-04 08:06 49.40569 -2.33454 9678 ft 284 kts 196°
2026-05-04 08:06 49.38700 -2.34277 8998 ft 283 kts 196°
2026-05-04 08:06 49.36817 -2.35106 8311 ft 281 kts 196°
2026-05-04 08:06 49.34938 -2.35932 7627 ft 279 kts 196°
2026-05-04 08:08 49.22192 -2.41124 3194 ft 247 kts 172°
2026-05-04 08:08 49.20654 -2.40206 2824 ft 238 kts 142°
2026-05-04 08:10 49.20396 -2.24302 792 ft 139 kts 81°
2026-05-04 08:11 49.20518 -2.22854 612 ft 137 kts 81°
2026-05-04 08:11 49.20761 -2.19975 285 ft 133 kts 82°
2026-05-04 08:11 49.20848 -2.18971 282 ft 53 kts 84°
2026-05-04 08:12 49.20887 -2.18499 279 ft 27 kts 82°
2026-05-04 08:12 49.20803 -2.18392 283 ft 17 kts 200°
2026-05-04 08:12 49.20735 -2.18503 282 ft 15 kts 259°
2026-05-04 08:12 49.20720 -2.18654 282 ft 14 kts 263°
2026-05-04 08:13 49.20709 -2.18805 283 ft 14 kts 263°
2026-05-04 08:13 49.20696 -2.18953 283 ft 14 kts 262°
2026-05-04 08:13 49.20684 -2.19093 286 ft 13 kts 263°
2026-05-04 08:13 49.20686 -2.19243 280 ft 15 kts 285°
2026-05-04 08:14 49.20710 -2.19404 284 ft 16 kts 271°
2026-05-04 08:14 49.20690 -2.19583 280 ft 18 kts 250°
2026-05-04 08:14 49.20606 -2.19662 280 ft 6 kts 166°
2026-05-04 08:16 49.20563 -2.19640 280 ft 0 kts 160°